Simultaneous Nadir Overpasses (SNOs) Predictions

Prediction of SNOs between NOAA-19 and METOP-C Satellite Orbit:

Table of predicted SNOs for the next 14.0 days since TLE Epoch: 8/31/2024
Index Date (NOAA-19) Time (NOAA-19) Lat,Lon (NOAA-19) SZA (NOAA-19 ) Date (METOP-C) Time (METOP-C) Lat,Lon (METOP-C) SZA (METOP-C ) Distance(km) Time Diff (sec)
1 09/05/2024 06:18:55 74.08, 80.01 67.45 09/05/2024 06:20:06 74.10, 80.07 67.46 2.49 71
2 09/05/2024 07:09:43 -74.80,-110.78 111.86 09/05/2024 07:10:33 -74.80,-110.78 111.87 0.13 50
3 09/05/2024 08:00:29 75.20, 57.72 68.55 09/05/2024 08:01:05 75.20, 57.71 68.54 0.55 36
4 09/05/2024 08:51:18 -75.83,-132.96 110.82 09/05/2024 08:51:33 -75.82,-133.03 110.83 2.39 15
5 09/05/2024 09:42:11 75.92, 34.61 69.29 09/05/2024 09:42:11 75.94, 34.68 69.31 2.91 0
6 09/05/2024 10:33:05 -76.30,-156.73 110.31 09/05/2024 10:32:44 -76.31,-156.69 110.30 1.29 21
7 09/05/2024 11:23:52 76.65, 11.91 70.07 09/05/2024 11:23:17 76.65, 11.90 70.07 0.30 35
8 09/05/2024 12:14:46 -77.02,-179.30 109.53 09/05/2024 12:13:50 -77.01,-179.35 109.54 1.52 56



Historial Predications of SNOs between NOAA-19 and METOP-C
